Roanoke, VA

1:40 PM EDT on July 27, 2017 (GMT -0400)
Roanoke Regional-Woodrum

Weather History for KROA - March, 2013

Change the Weather History Date:

Monday, March 11, 2013

  Actual Average Record
Temperature  
Mean Temperature 51 °F 46 °F  
Max Temperature 58 °F 56 °F 83 °F (1990)
Min Temperature 44 °F 35 °F 12 °F (1996)
Degree Days  
Heating Degree Days 14 19  
Month to date heating degree days 269 229  
Since 1 July heating degree days 3211 3434  
Cooling Degree Days 0 0  
Month to date cooling degree days 0 0  
Year to date cooling degree days 0 0  
Moisture  
Dew Point 34 °F    
Average Humidity 55    
Maximum Humidity 77    
Minimum Humidity 32    
Precipitation  
Precipitation 0.03 in 0.10 in 0.92 in (1936)
Month to date precipitation 0.96 1.13  
Year to date precipitation 10.25 6.94  
Snow  
Snow 0.00 in - - ()
Month to date snowfall 2.5  
Since 1 July snowfall 11.8  
Snow Depth 0.00 in    
Sea Level Pressure  
Sea Level Pressure 30.05 in    
Wind  
Wind Speed 8 mph (SE)    
Max Wind Speed 15 mph    
Max Gust Speed 20 mph    
Visibility 10 miles    
Events Rain    
T = Trace of Precipitation, MM = Missing Value Source: NWS Daily Summary

Daily Weather History Graph

Daily Weather History Graph

Search for Another Location

Airport or City:

Trip Planner

Search our weather history database for the weather conditions in past years. The results will help you decide how hot, cold, wet, or windy it might be!

Date:

Astronomy

Mar. 11, 2013 Rise Set
Actual Time 7:36 AM EDT 7:23 PM EDT
Civil Twilight 7:10 AM EDT 7:49 PM EDT
Nautical Twilight 6:40 AM EDT 8:19 PM EDT
Astronomical Twilight 6:09 AM EDT 8:50 PM EDT
Moon 7:09 AM EDT (3/11) 7:32 PM EDT (3/11)
Length of Visible Light 12h 39m
Length of Day
11h 47m
Waning Crescent, 0% of the Moon is Illuminated
Mar 11
Waning Crescent
Mar 11
New
Mar 19
First Quarter
Mar 27
Full
Apr 3
Last Quarter

Hourly Weather History & Observations

Time (EDT) Temp. Windchill Dew Point Humidity Pressure Visibility Wind Dir Wind Speed Gust Speed Precip Events Conditions
12:54 AM 51.8 °F - 26.6 °F 38% 30.20 in 10.0 mi SSE 5.8 mph - N/A   Clear
1:54 AM 51.1 °F - 25.0 °F 36% 30.18 in 10.0 mi SSE 6.9 mph - N/A   Clear
2:54 AM 51.1 °F - 23.0 °F 33% 30.17 in 10.0 mi SE 10.4 mph - N/A   Clear
3:54 AM 50.0 °F - 23.0 °F 35% 30.14 in 10.0 mi ESE 10.4 mph - N/A   Clear
4:54 AM 48.0 °F - 23.0 °F 37% 30.13 in 10.0 mi ESE 8.1 mph - N/A   Clear
5:54 AM 46.0 °F 41.4 °F 24.1 °F 42% 30.12 in 10.0 mi SE 9.2 mph - N/A   Clear
6:54 AM 46.0 °F 41.4 °F 24.1 °F 42% 30.13 in 10.0 mi SE 9.2 mph - N/A   Clear
7:54 AM 45.0 °F 40.6 °F 25.0 °F 46% 30.14 in 10.0 mi SSE 8.1 mph - N/A   Clear
8:54 AM 46.9 °F - 24.1 °F 41% 30.13 in 10.0 mi SSE 10.4 mph - N/A   Clear
9:54 AM 48.0 °F - 24.1 °F 39% 30.14 in 10.0 mi SE 8.1 mph - N/A   Scattered Clouds
10:54 AM 50.0 °F - 21.9 °F 33% 30.13 in 10.0 mi SE 12.7 mph - N/A   Mostly Cloudy
11:54 AM 52.0 °F - 25.0 °F 35% 30.10 in 10.0 mi SE 8.1 mph - N/A   Scattered Clouds
12:54 PM 52.0 °F - 28.9 °F 41% 30.09 in 10.0 mi ESE 9.2 mph - N/A   Scattered Clouds
1:54 PM 54.0 °F - 34.0 °F 47% 30.06 in 10.0 mi SSE 5.8 mph - N/A   Mostly Cloudy
2:54 PM 54.0 °F - 41.0 °F 62% 30.04 in 10.0 mi SSE 10.4 mph - N/A   Overcast
3:04 PM 55.4 °F - 41.0 °F 58% 30.03 in 10.0 mi SSE 9.2 mph - N/A   Overcast
3:54 PM 55.9 °F - 42.1 °F 60% 29.99 in 10.0 mi South 9.2 mph - N/A   Overcast
4:41 PM 55.4 °F - 44.6 °F 67% 29.99 in 10.0 mi SE 6.9 mph - N/A   Overcast
4:54 PM 55.9 °F - 43.0 °F 62% 29.97 in 10.0 mi East 5.8 mph - N/A   Overcast
5:54 PM 55.0 °F - 44.1 °F 67% 29.95 in 10.0 mi ESE 3.5 mph - N/A   Mostly Cloudy
6:54 PM 53.6 °F - 44.6 °F 72% 29.94 in 10.0 mi NNE 3.5 mph - N/A   Overcast
7:54 PM 55.0 °F - 45.0 °F 69% 29.94 in 10.0 mi Calm Calm - N/A   Overcast
8:54 PM 53.1 °F - 46.0 °F 77% 29.92 in 10.0 mi Calm Calm - 0.00 in   Overcast
9:54 PM 53.1 °F - 46.9 °F 80% 29.90 in 10.0 mi Calm Calm - 0.00 in   Overcast
10:54 PM 57.0 °F - 48.0 °F 72% 29.88 in 10.0 mi SSE 10.4 mph - 0.00 in   Overcast
11:54 PM 57.9 °F - 50.0 °F 75% 29.87 in 10.0 mi South 15.0 mph - 0.01 in Rain Light Rain